DANURI (KPLO) (53365 NORAD) Tracking and Keplerian Element Data

This shows tracking and keplerian element data for the satellite.

Feedback or suggestion? Click here.




ElementValue
Catalog53365
NameDANURI (KPLO)
Epoch Orbit0
Epoch Day216.96995833
Epoch Year2022
RAAN147.2458
Inclination29.5
Eccentricity0.00033
Argument of Perigee140.47
Mean Anonmoly307.52
Mean Motion16.09976711
Decay Rate1.843E-05
L11 53365U 22094A 22216.96995833 .00001843 -58274-5 00000+0 0 9991
L22 53365 29.5000 147.2458 0003300 140.4700 307.5200 16.09976711 07

Live tracking and technical data element details for DANURI (KPLO) (NORAD 53365). DANURI (KPLO) can be tracked NOW for your location showing map with azimuth and elevation plus other details from your city location.

Track the satellite on the map from your city or location and see movement details for azimuth, elevation, latitude, longitude, range, height, and movement on the map or in text.







IsCatalogInMostPopularTable: catalog: 53365, numindb: 4
Update: records affected: 1



GetName: 53365 DANURI (KPLO)

Hit Count: updated at: Wed, 28 Sep 2022 22:16:32 GMT